Lawrenceville, IL

7:08 AM CST on December 06, 2019 (GMT -0600)
Lawrenceville-Vincennes International

Weather History for KLWV - September, 2019

Change the Weather History Date:

Saturday, September 14, 2019

  Actual Average Record
Temperature  
Mean Temperature 71 °F 70 °F  
Max Temperature 86 °F 83 °F 96 °F (1991)
Min Temperature 56 °F 58 °F 44 °F (1999)
Degree Days  
Heating Degree Days 0 1  
Month to date heating degree days 0 1  
Since 1 July heating degree days 0 2  
Cooling Degree Days 6 6  
Month to date cooling degree days 132 107  
Year to date cooling degree days 1326 1290  
Growing Degree Days 20 (Base 50)    
Moisture  
Dew Point 57 °F    
Average Humidity 64    
Maximum Humidity 93    
Minimum Humidity 34    
Precipitation  
Precipitation 0.00 in 0.11 in 0.80 in (1989)
Month to date precipitation 0.08 1.54  
Year to date precipitation 41.22 30.89  
Sea Level Pressure  
Sea Level Pressure 30.23 in    
Wind  
Wind Speed 3 mph (SE)    
Max Wind Speed 13 mph    
Max Gust Speed 16 mph    
Visibility 10 miles    
Events      
T = Trace of Precipitation, MM = Missing Value Source: NWS Daily Summary

Daily Weather History Graph

Daily Weather History Graph

Search for Another Location

Airport or City:

Astronomy

Sep. 14, 2019 Rise Set
Actual Time 6:30 AM CDT 7:00 PM CDT
Civil Twilight 6:04 AM CDT 7:27 PM CDT
Nautical Twilight 5:32 AM CDT 7:58 PM CDT
Astronomical Twilight 5:00 AM CDT 8:30 PM CDT
Moon 7:41 PM CDT (9/14) 6:44 AM CDT (9/14)
Length of Visible Light 13h 23m
Length of Day
12h 29m
Full, 100% of the Moon is Illuminated
Sep 14
Full
Sep 21
Last Quarter
Sep 28
New
Oct 5
First Quarter
Oct 13
Full

Hourly Weather History & Observations

Time (CDT) Temp. Heat Index Dew Point Humidity Pressure Visibility Wind Dir Wind Speed Gust Speed Precip Events Conditions
12:53 AM 63.0 °F - 57.0 °F 81% 30.19 in 10.0 mi WNW 4.6 mph - N/A   Clear
1:53 AM 62.1 °F - 57.9 °F 86% 30.20 in 10.0 mi WNW 3.5 mph - N/A   Clear
2:53 AM 59.0 °F - 55.9 °F 90% 30.21 in 10.0 mi Calm Calm - N/A   Clear
3:53 AM 59.0 °F - 55.9 °F 90% 30.22 in 10.0 mi Calm Calm - N/A   Clear
4:53 AM 57.9 °F - 55.9 °F 93% 30.24 in 10.0 mi Calm Calm - N/A   Clear
5:53 AM 55.9 °F - 54.0 °F 93% 30.25 in 10.0 mi Calm Calm - N/A   Clear
6:53 AM 57.9 °F - 55.9 °F 93% 30.27 in 10.0 mi Calm Calm - N/A   Clear
7:53 AM 61.0 °F - 57.9 °F 90% 30.30 in 10.0 mi Calm Calm - N/A   Clear
8:53 AM 68.0 °F - 61.0 °F 78% 30.29 in 10.0 mi ENE 3.5 mph - N/A   Clear
9:53 AM 72.0 °F - 60.1 °F 66% 30.29 in 10.0 mi Calm Calm - N/A   Clear
10:53 AM 77.0 °F - 57.0 °F 50% 30.29 in 10.0 mi Variable 6.9 mph - N/A   Clear
11:53 AM 79.0 °F - 55.0 °F 44% 30.27 in 10.0 mi ESE 4.6 mph - N/A   Clear
12:53 PM 82.0 °F 81.3 °F 54.0 °F 38% 30.26 in 10.0 mi North - - N/A   Clear
1:53 PM 82.9 °F 82.1 °F 55.9 °F 39% 30.23 in 10.0 mi North - - N/A   Clear
2:53 PM 84.0 °F 82.5 °F 53.1 °F 34% 30.22 in 10.0 mi Calm Calm - N/A   Clear
3:53 PM 84.9 °F 83.7 °F 55.9 °F 37% 30.20 in 10.0 mi SE 6.9 mph - N/A   Clear
4:53 PM 84.0 °F 83.3 °F 57.0 °F 40% 30.19 in 10.0 mi South 9.2 mph - N/A   Clear
5:53 PM 81.0 °F 81.0 °F 57.0 °F 44% 30.17 in 10.0 mi South 6.9 mph - N/A   Clear
6:53 PM 73.9 °F - 61.0 °F 64% 30.18 in 10.0 mi South 4.6 mph - N/A   Clear
7:53 PM 70.0 °F - 59.0 °F 68% 30.18 in 10.0 mi SE 4.6 mph - N/A   Clear
8:53 PM 66.0 °F - 59.0 °F 78% 30.19 in 10.0 mi ENE 3.5 mph - N/A   Clear
9:53 PM 63.0 °F - 57.9 °F 84% 30.20 in 10.0 mi Calm Calm - N/A   Clear
10:53 PM 63.0 °F - 59.0 °F 87% 30.20 in 10.0 mi Calm Calm - N/A   Clear
11:53 PM 62.1 °F - 57.9 °F 86% 30.19 in 10.0 mi East 4.6 mph - N/A   Clear